Terug naar catalogus

TACSAT 6

ActiefMilitairVLEO
NORAD 39473·PAYLOAD·🇺🇸 United States

Gelanceerd Dec 6, 2013 vanaf Vandenberg Space Force Base

Loading…

Volgende Passages (komende 24 uur)

TLE

VersSource: Space-Track

Epoch: Sep 13, 2026, 15:10 UTC

1 39473U 13072M   26256.63254080  .00806779  33621-3  12059-2 0  9992
2 39473 120.4450 148.3954 0014963 105.5051 254.7715 16.04123973133327

Volg TACSAT 6 in realtime met AllMySat

Download on the App Store